Wahpeton, MN

6:07 PM CDT on October 17, 2017 (GMT -0500)
Stern

Weather History for KBWP - October, 2011

Change the Weather History Date:

Monday, October 31, 2011

  Actual Average (KFFM) Record (KFFM)
Temperature  
Mean Temperature 42 °F -  
Max Temperature 57 °F 47 °F 75 °F (1999)
Min Temperature 28 °F 30 °F 6 °F (1951)
Degree Days  
Heating Degree Days 22    
Moisture  
Dew Point 30 °F    
Average Humidity 66    
Maximum Humidity 93    
Minimum Humidity 36    
Precipitation  
Precipitation 0.00 in - - ()
Sea Level Pressure  
Sea Level Pressure 29.89 in    
Wind  
Wind Speed 7 mph (SSE)    
Max Wind Speed 23 mph    
Max Gust Speed 29 mph    
Visibility 10 miles    
Events      
Averages and records for this station are not official NWS values.
T = Trace of Precipitation, MM = Missing Value Source: NWS Daily Summary

Daily Weather History Graph

Daily Weather History Graph

Search for Another Location

Airport or City:

Trip Planner

Search our weather history database for the weather conditions in past years. The results will help you decide how hot, cold, wet, or windy it might be!

Date:

Astronomy

Oct. 31, 2011 Rise Set
Actual Time 8:05 AM CDT 6:13 PM CDT
Civil Twilight 7:34 AM CDT 6:44 PM CDT
Nautical Twilight 6:59 AM CDT 7:20 PM CDT
Astronomical Twilight 6:24 AM CDT 7:55 PM CDT
Moon 1:21 PM CDT (10/31) 10:44 PM CDT (10/31)
Length of Visible Light 11h 10m
Length of Day
10h 08m
Waxing Crescent, 30% of the Moon is Illuminated
Oct 31
Waxing Crescent
Nov 2
First Quarter
Nov 10
Full
Nov 18
Last Quarter
Nov 25
New

Hourly Weather History & Observations

Time (CDT) Temp. Windchill Dew Point Humidity Pressure Visibility Wind Dir Wind Speed Gust Speed Precip Events Conditions
12:15 AM 37.4 °F - 32.0 °F 81% 29.99 in 10.0 mi Calm Calm - N/A   Scattered Clouds
12:35 AM 35.6 °F 29.9 °F 30.2 °F 81% 29.99 in 10.0 mi West 6.9 mph - N/A   Clear
12:55 AM 33.8 °F 27.7 °F 28.4 °F 81% 29.99 in 10.0 mi West 6.9 mph - N/A   Clear
1:15 AM 33.8 °F 28.6 °F 28.4 °F 81% 29.99 in 10.0 mi West 5.8 mph - N/A   Clear
1:35 AM 32.0 °F 28.7 °F 28.4 °F 87% 29.99 in 10.0 mi West 3.5 mph - N/A   Clear
1:55 AM 32.0 °F 27.5 °F 28.4 °F 87% 29.99 in 10.0 mi West 4.6 mph - N/A   Clear
2:15 AM 32.0 °F 27.5 °F 28.4 °F 87% 30.00 in 10.0 mi West 4.6 mph - N/A   Clear
2:35 AM 32.0 °F - 28.4 °F 87% 29.99 in 10.0 mi Calm Calm - N/A   Clear
2:55 AM 32.0 °F - 28.4 °F 87% 29.99 in 10.0 mi Calm Calm - N/A   Clear
3:15 AM 32.0 °F - 28.4 °F 87% 29.99 in 10.0 mi Calm Calm - N/A   Clear
3:35 AM 32.0 °F 27.5 °F 28.4 °F 87% 29.99 in 10.0 mi West 4.6 mph - N/A   Clear
3:55 AM 32.0 °F - 28.4 °F 87% 29.99 in 10.0 mi Calm Calm - N/A   Clear
4:15 AM 32.0 °F - 28.4 °F 87% 29.98 in 10.0 mi Calm Calm - N/A   Clear
4:35 AM 32.0 °F 28.7 °F 28.4 °F 87% 29.98 in 10.0 mi West 3.5 mph - N/A   Clear
4:55 AM 30.2 °F - 26.6 °F 86% 29.98 in 10.0 mi Calm Calm - N/A   Clear
5:15 AM 30.2 °F - 28.4 °F 93% 29.97 in 10.0 mi Calm Calm - N/A   Clear
5:35 AM 30.2 °F 26.7 °F 26.6 °F 86% 29.97 in 10.0 mi SSE 3.5 mph - N/A   Clear
5:55 AM 28.4 °F 23.3 °F 26.6 °F 93% 29.98 in 10.0 mi SSE 4.6 mph - N/A   Clear
6:15 AM 30.2 °F 26.7 °F 26.6 °F 86% 29.98 in 10.0 mi SSE 3.5 mph - N/A   Clear
6:55 AM 28.4 °F 22.2 °F 24.8 °F 86% 29.98 in 10.0 mi SSE 5.8 mph - N/A   Clear
7:15 AM 28.4 °F 22.2 °F 26.6 °F 93% 29.97 in 10.0 mi SE 5.8 mph - N/A   Clear
7:35 AM 28.4 °F 21.2 °F 24.8 °F 86% 29.96 in 10.0 mi SE 6.9 mph - N/A   Clear
7:55 AM 28.4 °F 21.2 °F 26.6 °F 93% 29.95 in 10.0 mi SE 6.9 mph - N/A   Clear
8:15 AM 28.4 °F 21.2 °F 24.8 °F 86% 29.96 in 10.0 mi SSE 6.9 mph - N/A   Clear
8:35 AM 28.4 °F 21.2 °F 24.8 °F 86% 29.95 in 10.0 mi SSE 6.9 mph - N/A   Clear
8:55 AM 30.2 °F 22.6 °F 26.6 °F 86% 29.96 in 10.0 mi SE 8.1 mph - N/A   Clear
9:15 AM 30.2 °F 22.6 °F 26.6 °F 86% 29.95 in 10.0 mi SSE 8.1 mph - N/A   Clear
9:35 AM 32.0 °F 25.6 °F 28.4 °F 87% 29.95 in 10.0 mi SSE 6.9 mph - N/A   Clear
9:55 AM 33.8 °F 27.7 °F 30.2 °F 87% 29.94 in 10.0 mi SSE 6.9 mph - N/A   Clear
10:15 AM 35.6 °F 28.0 °F 30.2 °F 81% 29.93 in 10.0 mi SSE 10.4 mph - N/A   Clear
10:35 AM 39.2 °F 32.0 °F 30.2 °F 70% 29.92 in 10.0 mi SSE 11.5 mph - N/A   Clear
10:55 AM 41.0 °F 33.9 °F 32.0 °F 70% 29.92 in 10.0 mi SSE 12.7 mph - N/A   Clear
11:15 AM 42.8 °F 36.6 °F 32.0 °F 66% 29.91 in 10.0 mi SSE 11.5 mph - N/A   Clear
11:35 AM 44.6 °F 38.8 °F 32.0 °F 61% 29.91 in 10.0 mi SSE 11.5 mph - N/A   Clear
11:55 AM 46.4 °F 40.4 °F 32.0 °F 57% 29.90 in 10.0 mi SSE 13.8 mph - N/A   Clear
12:15 PM 48.2 °F - 32.0 °F 54% 29.89 in 10.0 mi South 13.8 mph - N/A   Clear
12:35 PM 50.0 °F - 32.0 °F 50% 29.88 in 10.0 mi South 16.1 mph 20.7 mph N/A   Clear
12:55 PM 51.8 °F - 32.0 °F 47% 29.87 in 10.0 mi SSE 15.0 mph 19.6 mph N/A   Clear
1:15 PM 51.8 °F - 32.0 °F 47% 29.85 in 10.0 mi SSE 16.1 mph 24.2 mph N/A   Clear
1:35 PM 53.6 °F - 32.0 °F 44% 29.84 in 10.0 mi SSE 17.3 mph - N/A   Clear
1:55 PM 53.6 °F - 32.0 °F 44% 29.83 in 10.0 mi South 17.3 mph - N/A   Clear
2:15 PM 53.6 °F - 32.0 °F 44% 29.82 in 10.0 mi South 19.6 mph 26.5 mph N/A   Clear
2:35 PM 53.6 °F - 32.0 °F 44% 29.81 in 10.0 mi South 16.1 mph 21.9 mph N/A   Clear
2:55 PM 55.4 °F - 32.0 °F 41% 29.80 in 10.0 mi South 16.1 mph - N/A   Clear
3:15 PM 55.4 °F - 32.0 °F 41% 29.79 in 10.0 mi South 17.3 mph 28.8 mph N/A   Scattered Clouds
3:35 PM 55.4 °F - 32.0 °F 41% 29.78 in 10.0 mi South 23.0 mph 26.5 mph N/A   Scattered Clouds
3:55 PM 57.2 °F - 32.0 °F 38% 29.77 in 10.0 mi SSE 19.6 mph 26.5 mph N/A   Clear
4:15 PM 57.2 °F - 30.2 °F 36% 29.77 in 10.0 mi South 19.6 mph 24.2 mph N/A   Clear
4:35 PM 57.2 °F - 30.2 °F 36% 29.76 in 10.0 mi South 17.3 mph 25.3 mph N/A   Clear
4:55 PM 55.4 °F - 30.2 °F 38% 29.76 in 10.0 mi South 18.4 mph 28.8 mph N/A   Clear
5:15 PM 55.4 °F - 30.2 °F 38% 29.75 in 10.0 mi SSE 21.9 mph 25.3 mph N/A   Clear
5:35 PM 55.4 °F - 30.2 °F 38% 29.76 in 10.0 mi SSE 17.3 mph - N/A   Clear
5:55 PM 53.6 °F - 32.0 °F 44% 29.75 in 10.0 mi SSE 15.0 mph - N/A   Clear
6:15 PM 53.6 °F - 32.0 °F 44% 29.76 in 10.0 mi SSE 12.7 mph - N/A   Clear
6:35 PM 51.8 °F - 32.0 °F 47% 29.76 in 10.0 mi SSE 10.4 mph - N/A   Clear
6:55 PM 50.0 °F - 32.0 °F 50% 29.76 in 10.0 mi SSE 8.1 mph - N/A   Clear
7:15 PM 50.0 °F - 32.0 °F 50% 29.77 in 10.0 mi SE 8.1 mph - N/A   Clear
7:35 PM 50.0 °F - 32.0 °F 50% 29.77 in 10.0 mi SSE 10.4 mph - N/A   Clear
7:55 PM 50.0 °F - 32.0 °F 50% 29.77 in 10.0 mi SSE 9.2 mph - N/A   Clear
8:15 PM 50.0 °F - 32.0 °F 50% 29.77 in 10.0 mi SSE 10.4 mph - N/A   Scattered Clouds
8:35 PM 50.0 °F - 32.0 °F 50% 29.77 in 10.0 mi SSE 8.1 mph - N/A   Overcast
8:55 PM 50.0 °F - 32.0 °F 50% 29.77 in 10.0 mi SSE 8.1 mph - N/A   Overcast
9:15 PM 50.0 °F - 32.0 °F 50% 29.76 in 10.0 mi SSE 10.4 mph 16.1 mph N/A   Overcast
9:35 PM 50.0 °F - 32.0 °F 50% 29.76 in 10.0 mi SSE 9.2 mph - N/A   Mostly Cloudy
9:55 PM 50.0 °F - 32.0 °F 50% 29.76 in 10.0 mi SSE 9.2 mph - N/A   Mostly Cloudy
10:15 PM 50.0 °F - 32.0 °F 50% 29.76 in 10.0 mi SSE 8.1 mph - N/A   Scattered Clouds
10:35 PM 50.0 °F - 32.0 °F 50% 29.76 in 10.0 mi South 10.4 mph - N/A   Mostly Cloudy
10:55 PM 50.0 °F - 32.0 °F 50% 29.76 in 10.0 mi South 11.5 mph - N/A   Mostly Cloudy
11:15 PM 50.0 °F - 30.2 °F 47% 29.76 in 10.0 mi South 10.4 mph - N/A   Scattered Clouds
11:35 PM 50.0 °F - 30.2 °F 47% 29.76 in 10.0 mi South 10.4 mph - N/A   Mostly Cloudy